Tracking 31027 objects as of 19-Jul-2025
HD Live streaming from Space Station
objects crossing your sky now

STARLINK-3366

Track STARLINK-3366 now!
10-day predictions
STARLINK-3366 is classified as:


NORAD ID: 51104
Int'l Code: 2022-005A
Perigee: 546.4 km
Apogee: 547.4 km
Inclination: 53.2 °
Period: 95.4 minutes
Semi major axis: 6917 km
RCS: Unknown
Launch date: January 19, 2022
Source: United States (US)
Launch site: AIR FORCE EASTERN TEST RANGE (AFETR)
Your satellite tracking list
IRIDIUM 33 DEB
Track 1 satellite(s)




NASA's NSSDC Master Catalog

Two Line Element Set (TLE):
1 51104U 22005A   25199.44839444  .00000388  00000-0  42473-4 0  9999
2 51104  53.2166 260.6717 0000780  87.6901 272.4180 15.08834958193515
Source of the keplerian elements: AFSPC